GFSNW_925_thetae_159.txt.gz
Theta_e
306 305 306 306 305 306 308 312 317 309 305 316 314 315 312 308 310 310 311 311 312 311 311 312 311 311 312 310 310 311 309 312 314 312 310 309 310 312 311 313 314 312 312 315
305 306 306 306 305 305 307 313 312 310 308 318 314 311 311 310 311 311 311 312 311 311 311 313 312 312 310 310 311 311 309 311 314 311 311 310 311 311 309 310 311 314 313 314
305 306 306 306 305 305 306 312 319 313 311 310 312 311 310 311 310 310 310 310 310 311 311 311 312 312 311 310 311 309 308 310 311 314 313 312 311 311 310 311 314 312 311 311
305 306 305 306 305 305 307 311 312 309 314 311 310 310 308 309 310 309 309 311 310 309 311 310 311 311 310 310 308 308 308 312 309 308 308 309 310 311 310 310 311 310 311 310
306 306 305 306 305 305 310 313 313 308 309 308 309 308 310 310 309 309 309 311 309 309 309 309 310 310 309 309 309 309 308 313 309 310 306 307 307 308 308 310 310 309 309 309
307 306 306 305 306 306 309 306 306 309 306 309 310 311 310 310 309 309 308 309 310 310 309 308 308 308 308 308 309 308 308 309 310 310 305 306 310 308 307 307 308 308 308 310
307 306 306 305 306 305 306 305 307 312 312 310 309 309 309 310 309 310 309 308 309 307 305 306 307 308 308 309 308 307 308 308 310 314 310 318 305 304 306 307 307 307 307 308
307 307 306 305 306 305 305 304 308 311 310 311 309 308 309 309 308 309 309 308 306 305 306 309 309 309 308 307 307 309 307 309 311 316 313 313 308 304 306 308 310 307 308 308
308 307 306 305 305 306 305 304 304 309 311 310 308 309 309 310 311 310 308 305 304 305 307 309 313 313 309 310 309 307 308 308 311 309 313 313 310 306 305 306 311 307 307 308
310 307 307 305 305 306 305 304 304 308 310 308 306 309 310 308 309 311 309 308 307 305 309 311 312 313 306 310 311 312 312 311 313 312 313 312 307 305 305 311 310 307 306 307
311 307 307 306 305 305 306 305 304 305 309 308 305 304 307 307 308 311 308 309 308 308 310 311 312 311 309 308 309 310 312 313 314 312 313 315 306 305 309 308 306 306 306 306
311 308 307 306 305 305 305 307 304 304 306 307 302 302 300 301 301 307 306 308 308 309 310 309 309 309 307 308 309 306 309 311 312 312 313 309 306 308 306 305 306 306 306 306
310 308 307 307 305 305 304 306 305 304 307 308 305 306 299 300 299 300 308 307 305 305 304 308 309 310 309 310 310 309 307 306 308 309 309 310 309 308 307 306 305 305 305 305
307 308 308 307 306 305 305 306 305 304 305 309 306 299 300 298 298 299 300 302 302 303 305 308 310 310 308 309 307 308 308 305 308 308 308 308 308 307 306 304 305 304 304 302
300 305 307 308 307 306 305 305 305 305 305 309 308 300 296 297 297 298 299 302 304 306 308 310 310 309 307 306 305 308 307 307 308 308 308 308 308 305 304 304 304 303 301 301
297 298 303 306 308 307 306 307 306 305 305 308 310 299 298 297 298 299 300 301 303 305 307 308 308 303 306 310 309 308 308 308 308 308 307 305 305 304 303 302 301 300 299 299
296 297 298 303 306 307 305 306 303 304 304 307 308 308 297 297 298 298 299 299 302 303 306 306 306 305 305 308 309 308 307 307 307 305 303 305 304 305 301 300 299 297 296 296
296 296 296 298 304 305 305 305 303 304 304 303 308 307 300 296 300 301 297 301 301 302 305 302 304 303 304 307 307 307 306 305 304 303 303 303 301 300 300 300 298 297 296 295
296 295 296 301 303 303 304 305 304 303 301 307 304 307 309 296 298 299 299 300 303 299 303 303 302 304 304 305 306 306 306 304 304 301 301 300 300 299 298 298 298 297 297 294
295 297 302 304 302 303 304 302 302 301 301 299 302 301 303 299 299 300 301 300 304 303 302 300 302 303 303 303 304 304 303 303 301 298 299 299 298 298 297 296 296 295 295 293
296 300 301 300 300 301 302 302 301 301 302 300 301 301 301 296 303 303 301 302 301 303 303 301 304 304 303 302 302 303 301 301 299 298 297 296 296 297 296 293 292 291 291 291
297 297 299 299 297 298 302 303 303 302 306 300 301 303 301 297 298 302 298 303 300 304 298 299 302 304 303 298 298 298 298 297 295 294 295 294 293 294 293 291 291 290 289 289
295 297 296 299 299 302 304 305 305 303 301 299 299 300 299 297 298 302 302 303 302 298 300 302 304 303 297 298 296 295 293 293 293 292 291 291 290 290 290 290 290 290 290 290
295 297 297 298 299 300 304 304 306 303 302 300 302 301 302 301 301 302 304 302 298 301 302 303 304 302 299 297 295 293 292 292 291 290 290 291 291 290 290 290 289 289 289 289
296 297 298 298 299 297 293 293 298 296 301 301 299 299 301 301 304 302 300 299 303 303 305 305 302 296 296 295 293 292 291 291 290 289 288 287 288 289 289 289 289 288 287 287
295 296 296 296 297 299 294 295 296 297 300 297 299 302 303 304 304 301 302 302 303 306 303 301 294 293 294 294 291 291 290 290 290 290 289 288 288 289 289 288 287 287 286 286
296 295 296 297 296 298 296 295 297 297 299 301 301 302 303 300 302 302 302 303 305 300 299 295 293 294 294 292 291 290 290 290 290 289 289 289 288 287 285 286 287 287 286 286

GFSNW_925_thetae_165.txt.gz
Theta_e
305 305 306 305 305 305 309 311 312 310 306 310 306 308 311 308 310 310 310 310 311 310 309 310 310 311 310 308 309 310 307 307 308 310 308 308 309 310 308 310 308 305 308 307
306 305 306 305 305 304 306 306 306 309 308 312 306 309 310 309 310 310 310 311 310 309 310 312 311 310 309 309 308 308 307 307 306 305 307 307 308 310 308 306 306 307 308 306
306 306 306 305 305 305 306 306 310 307 304 304 308 310 309 310 309 309 308 309 309 308 309 309 311 311 310 309 308 309 307 305 307 306 308 308 309 310 308 308 305 307 306 303
307 307 306 305 305 307 309 305 306 305 307 306 306 307 307 308 309 307 308 309 308 308 308 308 309 308 309 309 308 307 306 305 304 306 306 307 309 309 308 307 308 306 306 305
309 308 307 305 305 308 308 308 308 304 304 306 308 307 308 309 308 308 309 309 308 306 308 308 309 307 306 307 305 306 304 305 304 306 305 305 305 306 308 307 308 308 307 306
312 309 307 305 305 307 307 307 306 305 307 306 306 307 308 309 308 308 307 307 307 308 307 306 306 305 304 305 306 305 304 304 304 307 304 305 307 304 304 306 306 305 304 305
312 312 308 306 305 306 307 305 306 307 310 306 307 308 309 309 308 309 307 306 308 306 304 303 304 306 306 305 305 303 305 304 304 305 308 311 307 302 303 305 305 305 304 305
312 312 309 307 306 305 305 305 306 306 310 307 307 308 308 307 307 308 308 306 303 301 304 305 306 305 306 306 305 306 303 305 306 309 308 308 303 303 304 305 307 304 304 304
313 313 311 308 306 306 306 304 306 305 307 307 306 307 308 307 306 306 307 304 303 304 304 305 310 309 307 308 307 306 306 303 306 305 309 309 308 304 304 305 306 305 304 305
313 313 312 309 307 306 306 305 304 307 307 304 305 306 307 305 306 306 306 306 305 303 305 307 308 309 305 307 309 310 307 306 306 307 307 306 305 303 304 307 305 303 303 304
312 313 313 309 307 306 306 306 304 306 305 305 304 303 305 305 304 307 305 305 305 304 305 306 307 306 305 304 306 308 308 307 307 307 309 305 302 303 305 303 302 303 304 304
310 312 312 309 307 306 305 308 304 304 304 305 303 302 301 302 301 303 303 306 305 305 305 304 303 306 302 304 304 304 305 306 308 306 306 304 301 304 303 301 302 304 304 304
309 312 311 308 307 306 305 307 305 305 303 304 302 303 300 301 300 300 305 302 302 303 300 303 304 306 303 306 304 305 304 303 305 305 304 307 304 302 302 302 302 302 303 303
307 309 309 307 307 306 305 306 306 305 303 303 304 299 299 299 299 300 301 301 301 301 300 304 305 306 303 304 303 304 303 303 303 303 302 302 303 302 302 301 301 302 301 300
299 304 307 308 307 306 305 305 305 305 304 306 304 299 298 298 298 299 300 301 301 301 303 302 305 303 304 301 301 304 302 303 303 303 302 302 303 302 300 301 302 300 300 299
296 296 300 305 308 307 306 305 306 305 304 302 302 298 297 298 298 299 300 300 300 300 302 302 303 300 302 302 303 304 303 301 301 303 301 301 302 300 301 301 299 298 297 297
296 295 296 299 306 307 306 306 304 305 304 306 305 304 295 297 298 298 298 299 299 299 300 301 302 302 300 301 305 306 303 302 302 302 300 303 301 301 298 297 298 298 296 295
295 295 295 295 302 305 305 305 305 304 304 303 304 303 296 296 299 299 296 299 299 299 299 299 301 299 300 303 304 304 302 301 302 300 300 300 297 296 297 298 296 295 294 293
294 295 296 299 303 304 304 305 305 304 303 304 302 306 301 294 296 297 297 298 301 297 299 300 301 301 303 304 303 302 301 302 302 300 299 297 298 297 297 296 296 295 294 291
295 299 301 302 301 302 302 303 302 301 302 299 303 300 301 296 297 299 299 298 301 303 299 298 301 302 301 302 301 300 300 301 298 294 297 298 297 296 295 294 293 293 293 290
297 298 299 300 300 301 302 302 302 300 302 300 300 302 300 295 300 301 299 301 300 301 297 301 302 301 299 299 298 297 296 297 297 297 297 296 295 294 293 291 291 291 290 289
294 295 297 299 297 298 302 302 301 301 304 300 301 301 299 297 297 300 298 302 300 301 297 299 300 298 297 297 297 296 295 296 295 295 293 293 294 294 292 290 289 289 289 289
295 294 295 297 297 301 303 296 302 304 300 299 298 299 298 296 298 299 300 303 301 294 299 300 297 296 296 296 294 293 292 293 292 292 293 293 292 293 290 288 289 289 289 289
293 293 291 294 289 297 299 299 300 297 297 299 299 298 299 298 300 300 301 299 297 300 301 298 294 296 294 293 292 291 291 291 289 284 288 289 289 288 289 289 289 289 288 288
292 293 293 285 291 293 292 290 293 294 297 298 298 299 299 298 302 301 298 298 300 301 297 294 293 291 290 291 291 290 290 288 287 287 286 287 288 288 288 289 288 288 288 287
291 291 294 294 290 293 289 285 289 291 298 296 297 301 301 301 300 302 297 294 293 293 291 292 291 290 290 291 291 290 289 288 287 287 287 287 288 287 288 288 288 287 286 286
286 290 291 288 287 290 292 292 293 294 297 298 299 301 301 299 302 301 298 297 298 297 296 292 290 290 290 290 289 288 288 288 288 288 288 287 288 288 287 285 286 286 286 286

GFSNW_925_thetae_168.txt.gz
Theta_e
306 305 305 305 305 304 308 309 309 308 307 308 303 306 310 307 310 309 310 309 309 309 309 309 310 310 309 308 309 309 306 306 307 309 307 307 308 309 305 309 305 304 306 305
307 306 306 305 305 305 304 305 305 307 307 310 305 307 309 309 309 309 309 310 309 308 309 311 310 310 308 308 308 308 307 306 304 305 305 305 307 309 307 304 303 306 306 303
308 308 307 305 305 305 305 304 309 304 301 302 306 309 308 310 308 309 308 308 307 307 307 307 310 309 309 308 307 308 307 305 306 307 306 305 308 309 307 305 304 305 303 302
309 309 308 305 305 306 307 303 303 303 305 304 305 306 306 307 308 307 306 308 307 307 308 307 307 307 305 307 306 306 305 305 304 305 304 307 308 308 307 306 306 306 305 304
312 310 308 306 305 307 306 305 307 302 303 304 307 305 307 308 308 307 308 308 307 305 307 308 308 306 305 306 304 303 302 305 303 304 303 303 304 305 305 306 306 305 304 305
311 311 310 307 305 307 305 305 304 304 305 304 305 306 308 308 307 307 306 307 306 307 307 306 305 304 303 304 305 304 302 302 303 305 303 305 307 304 306 306 306 303 304 302
311 311 311 308 305 305 306 304 305 306 308 304 305 307 308 308 307 308 307 305 307 305 302 302 303 304 304 304 304 302 303 303 302 304 307 308 307 301 302 304 305 303 303 303
312 311 312 309 306 305 304 304 305 305 307 305 306 307 307 306 306 307 307 305 303 300 303 304 305 305 305 305 305 305 302 303 304 308 306 307 305 302 303 304 306 302 302 303
312 312 312 310 307 306 305 304 306 304 305 305 305 306 307 306 305 306 307 304 302 303 302 304 309 307 307 307 306 305 304 301 304 304 306 307 307 303 303 304 305 303 302 303
312 312 312 311 308 307 306 304 304 306 306 304 304 305 306 304 304 305 305 305 305 302 303 306 307 308 304 306 307 309 305 304 305 306 306 304 303 303 303 307 304 302 301 302
311 312 313 311 308 306 306 306 304 305 303 304 304 303 304 303 303 306 304 303 304 303 304 305 306 305 304 304 304 308 306 305 306 305 309 304 301 303 305 302 301 301 301 302
308 311 313 312 309 306 305 307 304 304 302 303 302 302 301 301 301 302 302 304 304 303 304 302 302 305 301 302 303 303 305 305 306 305 305 302 300 303 301 300 301 302 301 302
305 310 312 312 309 306 305 307 305 305 301 302 302 302 301 301 300 300 304 301 301 301 300 302 303 306 302 305 303 304 303 301 304 304 303 304 303 300 301 300 301 301 300 301
307 309 311 309 307 306 305 305 305 305 301 302 302 299 299 299 299 300 301 301 301 300 300 302 304 304 302 303 302 303 302 302 302 302 301 301 300 300 301 300 300 300 300 299
303 307 309 308 307 306 305 305 305 305 304 306 303 298 298 298 298 299 300 300 300 301 302 302 305 302 303 301 301 304 301 302 303 303 301 301 301 302 300 299 300 299 298 298
296 299 305 307 307 306 306 306 306 305 304 305 306 297 296 298 298 299 299 299 299 299 302 302 302 300 301 302 303 304 302 300 300 303 300 299 301 300 299 299 299 297 297 297
296 295 296 303 306 306 305 306 304 305 304 306 305 302 295 297 297 296 296 298 297 299 300 301 301 302 299 300 304 305 304 302 300 299 300 302 301 301 299 298 297 298 296 296
295 295 295 296 304 306 305 305 306 305 304 303 304 303 297 296 297 297 295 297 297 298 299 298 301 300 300 303 303 303 301 300 300 300 298 300 299 297 296 296 295 294 294 292
294 295 296 299 303 303 303 304 304 304 303 304 302 305 301 294 295 295 296 297 299 295 299 300 300 301 303 304 303 301 301 302 302 300 298 297 298 296 296 295 295 295 293 292
296 299 301 301 300 302 302 302 302 301 302 300 303 300 298 295 297 298 298 297 300 297 299 298 301 302 302 302 300 299 298 298 298 294 297 297 297 295 295 294 293 294 293 292
296 297 298 299 300 301 302 302 301 300 302 300 301 301 299 295 301 301 299 301 298 298 297 300 301 300 299 298 296 296 295 295 295 296 297 296 296 294 293 292 291 292 291 289
294 295 297 298 297 298 302 303 300 301 304 300 302 301 299 297 297 300 299 302 300 299 297 300 300 297 297 295 294 294 292 293 295 295 294 293 294 293 292 290 289 289 289 289
295 293 295 294 296 301 300 296 299 303 300 299 298 299 298 296 298 299 300 302 302 295 299 300 296 295 295 292 292 292 291 292 293 292 292 293 293 292 290 288 288 289 288 288
290 287 292 292 290 297 298 298 299 297 297 298 297 298 299 298 300 299 301 299 297 299 301 297 292 294 292 290 290 290 291 291 290 284 289 289 290 289 289 289 289 289 288 288
290 292 289 291 291 291 292 291 293 294 296 298 298 299 299 299 301 301 297 299 301 301 296 292 292 291 289 289 290 290 289 288 287 286 284 286 287 287 288 288 288 288 288 287
290 290 291 291 289 293 287 286 289 291 297 296 296 300 301 301 301 301 299 294 291 296 295 294 289 290 289 288 289 289 289 288 287 287 287 287 287 287 287 288 288 287 286 286
287 289 290 291 291 290 290 291 292 293 292 292 296 298 299 297 300 299 292 291 296 294 295 292 292 291 290 289 289 288 288 288 287 287 287 287 287 287 287 285 286 286 286 286

GFSNW_925_thetae_171.txt.gz
Theta_e
306 305 305 305 305 305 308 308 308 307 307 307 301 305 307 307 309 308 309 308 308 308 308 309 309 309 308 307 308 308 305 304 310 311 310 312 307 307 305 306 305 303 304 303
306 306 306 305 305 305 304 306 304 306 306 310 304 304 309 308 308 309 308 309 308 307 308 310 309 309 308 308 307 307 306 305 305 305 304 305 305 306 304 303 302 304 304 304
307 307 307 306 305 305 305 303 309 303 301 300 305 308 308 309 307 308 307 307 306 306 306 306 308 307 308 307 307 308 305 303 304 306 306 304 306 308 305 304 303 304 302 302
308 308 308 306 305 305 307 302 303 304 306 303 303 305 305 306 307 306 305 307 306 306 307 306 307 306 304 305 304 305 304 304 304 304 303 305 307 307 306 306 305 305 302 304
309 310 309 307 305 307 306 306 305 300 301 302 305 305 306 307 307 306 307 307 306 305 306 307 306 306 305 306 303 302 300 305 303 303 302 302 304 305 304 305 303 301 301 305
310 311 311 307 305 306 305 304 303 303 304 302 304 305 306 307 306 307 306 306 306 307 306 305 305 304 302 303 304 303 302 302 304 304 304 304 305 303 306 305 305 302 304 302
311 310 311 308 305 305 304 304 304 306 307 303 304 306 306 306 306 307 306 304 306 305 301 301 302 302 304 303 304 301 302 302 301 303 306 306 306 301 302 304 304 302 302 300
311 311 310 310 307 305 304 305 305 304 306 304 305 306 307 305 305 306 307 304 302 299 302 302 305 304 304 305 305 305 301 302 303 306 305 305 304 301 302 303 305 302 302 302
313 312 311 311 308 306 305 304 306 303 305 305 305 305 305 305 304 305 306 303 301 301 301 303 307 306 306 306 305 304 302 300 303 303 305 306 306 303 302 303 303 301 301 301
313 312 312 311 310 307 306 304 304 305 303 303 304 305 306 303 303 304 304 305 304 301 302 305 306 307 304 304 307 308 304 303 304 306 305 303 302 302 302 305 304 301 299 300
312 312 312 312 310 307 306 306 304 304 302 303 303 303 303 303 302 305 303 302 302 302 303 304 305 305 303 303 303 307 305 303 304 305 306 304 301 303 306 302 301 300 300 300
313 312 311 313 310 307 306 306 304 304 301 301 302 301 300 301 300 302 301 302 303 302 302 301 301 304 300 301 302 302 304 303 305 304 304 301 299 302 300 299 300 300 300 300
310 310 311 312 311 308 306 306 305 304 301 301 302 302 300 300 300 300 303 301 301 301 299 300 301 305 301 304 302 303 302 300 304 303 302 302 303 300 300 299 301 300 300 300
306 307 310 312 311 307 305 305 305 304 301 303 302 299 299 299 299 300 300 300 300 299 299 302 303 303 301 303 301 302 301 301 301 301 300 300 300 300 300 300 300 300 299 299
307 308 310 311 308 306 305 305 305 305 304 305 303 298 298 298 298 299 300 300 300 300 302 303 305 302 302 300 301 303 300 302 302 303 301 301 301 302 299 298 298 298 298 297
302 306 308 308 307 306 306 306 305 305 305 304 306 297 296 297 298 298 299 299 298 299 301 301 301 300 301 302 303 303 301 299 299 302 300 298 300 300 299 299 298 297 297 297
296 297 302 306 307 306 306 307 305 305 304 305 306 304 295 296 297 296 296 297 296 298 299 300 301 301 299 300 304 304 302 301 301 299 299 301 300 300 298 298 297 298 296 296
295 295 296 304 306 306 305 304 305 305 304 304 306 304 297 296 296 297 294 296 296 297 298 297 300 299 298 303 302 302 300 299 299 299 297 298 298 298 297 295 294 294 293 292
295 295 298 302 302 303 302 302 304 304 304 304 302 305 304 294 295 294 295 295 299 294 298 298 299 300 302 303 302 301 300 300 299 298 299 298 298 297 295 295 294 295 294 291
296 298 299 300 301 301 301 302 302 302 302 300 302 299 299 294 295 297 298 297 300 299 298 296 301 302 299 298 296 296 296 295 295 294 296 298 297 296 295 295 294 294 293 292
297 297 299 299 300 301 299 299 301 299 301 300 301 301 299 294 298 300 299 302 300 300 297 301 302 299 298 294 293 293 292 292 293 294 295 296 296 295 294 293 292 293 293 290
294 296 298 299 297 298 300 301 300 302 304 300 301 301 298 295 297 301 299 302 300 299 297 301 299 295 295 293 291 291 289 290 293 294 295 294 294 294 293 291 289 290 289 289
294 293 294 293 296 301 300 300 302 303 299 299 298 299 298 297 298 300 301 302 301 295 299 300 293 294 293 291 289 290 289 291 291 292 293 293 292 291 290 288 288 288 288 288
290 288 291 289 291 296 297 296 298 296 297 297 297 298 299 297 300 300 302 299 297 298 297 293 290 292 291 289 288 289 289 288 289 285 286 290 290 289 289 289 288 288 287 288
289 288 287 290 290 292 292 290 292 294 296 296 298 298 298 299 301 300 297 298 301 301 300 296 292 292 289 288 288 288 288 288 287 287 284 285 287 287 287 287 288 288 287 287
285 288 287 291 290 292 292 292 294 292 295 295 296 300 300 298 297 299 298 298 298 297 296 295 292 292 290 288 288 288 288 287 288 287 287 286 286 286 286 287 287 287 287 286
281 283 287 289 289 290 290 291 292 292 293 294 295 295 297 292 298 298 297 296 294 292 290 289 292 291 290 288 288 289 289 288 288 287 286 286 286 286 287 285 286 286 286 286

GFSNW_925_thetae_174.txt.gz
Theta_e
305 307 306 306 305 305 308 307 309 307 306 306 300 304 304 307 308 307 308 308 308 308 307 308 309 309 306 307 308 308 304 306 311 313 310 310 309 309 309 312 307 303 304 305
306 307 306 306 306 305 305 307 305 305 305 308 304 302 307 307 307 308 308 308 307 306 307 308 308 309 307 307 306 307 304 304 307 310 309 306 308 311 306 303 301 302 304 304
305 307 307 307 306 305 305 302 309 304 301 300 304 306 307 308 305 306 306 306 305 306 305 305 307 306 307 306 306 308 304 302 304 307 307 305 307 304 304 303 303 303 302 301
304 307 307 307 307 305 306 301 306 306 307 304 302 304 305 305 306 305 305 306 306 305 306 305 306 305 303 304 304 304 302 303 303 303 303 304 306 306 304 303 303 305 301 303
305 308 308 309 307 305 306 305 304 300 301 301 302 304 304 305 306 305 305 306 306 304 304 305 305 305 304 305 302 302 299 303 302 303 302 302 305 305 304 305 300 300 301 304
305 308 309 310 307 305 304 302 302 303 304 301 303 303 304 305 305 305 305 305 305 305 304 303 304 303 302 302 304 303 301 301 303 303 304 304 303 303 304 304 303 300 304 302
305 308 310 311 308 305 305 303 303 306 307 303 303 305 304 305 305 306 305 304 305 304 301 301 301 301 302 302 303 300 301 302 302 303 304 305 304 300 302 304 304 301 301 300
306 309 310 310 309 305 305 304 304 304 306 304 304 305 306 304 304 305 306 304 301 299 301 302 304 303 304 304 304 303 299 301 302 305 304 304 304 301 302 303 304 302 301 300
307 309 311 310 310 305 304 303 305 302 304 305 304 304 304 304 303 304 305 303 300 300 300 302 306 304 305 305 304 302 301 299 302 302 304 305 305 303 301 302 304 301 301 300
308 310 311 311 309 306 305 304 305 304 301 302 303 305 305 302 302 303 303 304 303 300 301 304 304 305 303 304 305 307 303 302 302 306 303 302 301 302 301 305 304 299 299 299
309 311 312 311 310 307 305 305 303 304 301 303 303 302 303 302 302 304 302 302 301 300 303 303 304 304 302 303 302 306 303 302 302 304 304 304 300 302 305 301 301 300 298 298
310 312 313 312 311 308 306 306 304 303 300 301 301 300 300 300 301 302 300 301 302 301 302 301 301 304 299 300 302 300 304 302 303 302 303 300 299 301 300 299 300 300 299 298
311 312 312 312 312 309 306 306 304 303 301 300 301 301 300 300 300 301 303 301 300 301 298 300 301 304 300 303 301 302 301 299 303 302 301 302 301 300 298 300 301 300 299 298
311 312 312 311 312 309 307 306 305 304 300 304 302 299 298 298 299 300 301 300 299 298 298 301 303 303 300 302 300 301 300 300 301 301 300 300 300 299 301 299 300 299 298 298
309 309 310 311 311 308 306 306 305 305 304 306 302 298 297 298 298 299 299 300 299 299 301 302 304 301 301 299 300 303 299 301 302 302 300 300 300 299 299 299 299 298 298 298
307 308 310 310 308 306 306 306 306 305 305 302 303 296 295 297 298 298 298 298 297 298 300 300 299 299 300 301 302 302 300 298 298 301 299 297 298 297 299 300 298 297 296 296
306 308 308 309 307 306 306 307 306 305 305 305 306 301 296 296 296 295 295 296 296 298 299 300 300 300 298 300 304 303 300 300 300 299 298 300 299 300 297 298 298 298 296 296
296 303 307 307 306 305 304 304 305 304 305 303 304 303 297 295 297 298 293 296 295 296 297 297 300 298 297 303 302 300 299 298 299 299 298 297 296 296 298 295 294 294 294 292
296 300 303 302 302 303 301 304 305 305 304 305 302 306 303 294 295 295 296 295 300 294 298 298 299 299 302 301 297 295 295 297 297 295 295 296 297 296 296 295 294 294 293 291
298 298 298 300 300 300 301 301 303 302 302 300 302 299 300 294 295 297 296 296 299 300 299 296 301 302 298 295 293 292 292 292 292 291 296 298 297 296 296 295 294 294 293 292
296 297 298 298 300 299 298 299 301 299 301 300 301 301 298 293 296 299 298 301 300 299 298 302 302 299 297 293 291 289 289 289 291 291 292 292 294 295 295 294 293 293 293 291
295 297 297 297 295 296 299 300 300 301 303 300 301 300 298 295 295 301 299 303 300 300 294 301 300 295 294 291 290 289 288 288 290 291 291 292 293 292 292 292 290 291 291 290
294 293 294 294 296 299 299 301 302 303 299 299 299 300 299 297 298 300 301 303 302 296 300 301 294 293 292 290 288 288 288 288 289 288 290 292 291 290 290 288 288 288 287 287
290 290 294 293 295 296 296 297 297 295 297 297 298 298 299 298 300 300 302 298 296 295 294 295 293 293 292 289 288 288 288 287 287 284 285 287 289 288 288 288 288 287 287 287
288 288 290 290 292 292 292 291 293 294 296 296 298 298 298 299 301 300 297 296 298 298 297 296 293 293 290 289 288 287 287 286 286 287 284 284 286 286 286 287 287 287 287 287
284 285 288 291 292 293 292 291 292 292 294 294 296 299 300 300 299 299 296 298 300 294 296 292 291 292 289 288 287 287 288 287 287 287 287 285 286 286 286 286 287 286 286 286
280 283 287 289 290 290 290 290 291 291 292 294 294 295 295 290 293 295 295 294 292 290 290 288 291 291 289 288 288 288 288 287 287 287 287 286 285 286 286 285 286 285 285 285

GFSNW_925_thetae_180.txt.gz
Theta_e
312 312 308 305 305 306 305 308 313 306 306 310 309 312 311 306 308 307 309 309 309 310 310 310 310 310 309 307 308 310 309 310 315 316 313 312 315 316 316 317 316 314 317 318
308 311 311 306 305 306 305 311 309 305 304 312 311 309 307 306 309 309 309 310 310 309 309 310 309 309 308 308 309 310 307 309 313 316 313 309 314 315 313 308 307 310 314 312
304 308 311 308 304 306 305 306 312 307 306 306 309 310 309 309 307 307 308 308 307 308 308 307 309 308 307 305 307 307 306 308 310 312 309 314 316 312 313 314 315 312 311 308
303 305 309 311 305 306 305 305 309 309 310 309 308 308 308 308 307 306 306 307 307 308 308 306 307 306 306 305 304 307 307 309 307 307 306 306 309 313 313 314 314 313 308 307
303 303 305 309 307 306 306 308 308 303 307 304 308 308 309 308 307 306 307 308 307 307 308 307 306 306 306 306 305 304 302 309 305 307 305 304 304 306 307 309 310 311 312 311
301 301 302 304 308 306 305 305 303 304 307 304 307 309 309 307 305 306 304 306 307 307 307 306 305 305 305 306 307 306 305 305 306 308 305 306 307 305 307 306 305 305 306 307
300 300 301 302 306 306 306 305 303 307 310 306 306 306 306 306 306 305 305 305 307 305 303 302 303 304 304 304 305 304 306 305 306 311 307 311 306 302 304 306 305 304 303 304
299 299 299 302 303 307 306 305 303 306 309 307 306 305 306 305 305 306 306 305 303 302 303 307 307 306 305 305 305 304 304 305 309 312 309 307 307 302 305 306 307 304 304 304
300 299 299 299 301 303 307 306 305 305 308 308 306 306 305 308 307 305 305 302 300 301 305 306 308 307 306 306 304 302 302 303 307 306 308 309 307 304 301 303 308 304 304 305
298 298 298 300 300 302 308 306 305 305 306 306 304 307 307 306 306 307 305 303 303 301 306 308 308 308 305 308 306 308 307 307 308 308 309 307 304 303 302 307 309 304 304 305
298 298 298 301 299 302 304 307 306 305 305 306 303 304 305 304 306 308 305 305 303 303 307 307 307 309 306 306 304 307 307 307 308 307 308 311 303 304 307 305 303 303 304 304
303 304 300 299 300 300 305 307 305 304 302 303 300 300 300 301 302 305 302 304 304 306 306 304 305 307 303 305 308 301 308 306 308 307 308 303 302 303 302 302 304 303 304 303
307 308 304 300 300 302 304 306 303 301 303 303 302 303 298 299 300 300 307 304 303 302 301 304 305 307 304 307 307 305 302 301 306 305 303 304 303 303 301 302 303 303 302 302
307 308 303 300 301 304 305 304 302 303 304 307 304 298 298 298 299 300 300 301 300 301 302 306 306 306 302 305 303 304 303 302 305 305 303 302 302 302 302 302 301 301 300 301
302 302 301 301 302 304 305 304 302 304 307 308 302 297 296 297 299 299 300 300 302 303 305 307 308 304 303 303 303 306 303 305 306 308 302 303 303 301 301 302 302 301 301 301
302 302 303 302 302 305 305 305 302 303 306 306 307 297 297 297 298 299 299 299 300 302 305 305 302 301 304 306 307 304 302 300 300 303 300 301 301 300 299 301 300 300 300 301
305 304 303 305 307 305 305 305 305 304 304 307 304 304 297 296 297 297 299 298 299 301 302 303 303 303 303 305 306 303 301 300 299 300 300 302 301 302 299 299 299 298 297 298
305 304 304 304 305 304 302 302 305 306 305 305 307 303 301 296 300 301 296 300 300 300 301 300 303 301 301 306 302 299 297 298 299 298 296 298 298 298 299 297 297 298 298 297
303 304 305 302 302 304 301 303 305 305 306 307 306 307 307 296 297 298 298 298 303 297 303 302 302 303 306 302 298 296 295 296 296 295 296 297 298 298 297 297 297 298 297 296
298 302 298 299 302 303 304 305 304 304 303 303 306 300 303 300 299 300 301 299 302 306 302 299 303 305 299 295 294 293 293 293 292 295 299 298 297 297 297 297 296 296 296 295
293 294 297 298 299 299 300 301 302 301 304 303 303 301 301 296 303 302 300 302 301 305 303 304 305 305 298 294 292 291 291 291 291 292 293 293 294 295 296 296 295 295 294 294
292 295 296 297 296 298 301 303 301 303 305 301 302 300 299 297 297 301 301 304 301 306 300 304 305 300 294 292 291 291 290 290 291 291 292 292 292 291 293 293 292 292 292 291
293 294 295 297 296 301 302 301 302 302 301 299 299 301 299 298 300 302 303 304 305 298 302 304 301 295 293 291 291 291 290 289 289 289 289 291 290 289 290 290 289 288 288 288
291 294 295 296 296 296 295 296 297 296 299 300 300 299 302 300 302 302 304 300 299 300 300 299 298 295 293 291 290 291 290 289 289 288 285 287 288 288 287 288 287 287 287 286
291 292 293 294 293 293 293 293 293 293 296 298 299 298 300 301 302 301 298 299 301 300 299 299 295 293 292 291 290 290 290 289 289 287 286 285 285 287 287 286 286 287 286 286
289 289 293 293 293 292 292 292 292 292 294 296 298 301 302 300 301 301 302 301 300 298 297 295 293 292 291 291 290 289 288 288 288 287 287 285 285 286 285 285 286 286 286 286
286 289 289 292 292 291 290 290 290 290 293 295 296 297 296 296 299 298 297 297 296 295 294 293 293 292 291 289 289 288 287 287 287 286 286 285 284 284 284 285 285 285 285 285

GFSNW_925_thetae_183.txt.gz
Theta_e
306 308 312 311 307 305 306 309 313 307 307 313 313 315 313 308 310 309 310 310 311 311 311 311 311 311 311 309 309 311 311 312 313 313 315 314 315 317 317 323 319 317 318 316
303 305 307 310 307 305 307 310 312 307 307 316 316 312 311 310 310 310 311 311 311 311 311 311 310 311 310 309 309 310 310 311 313 315 314 312 314 314 315 317 314 317 316 317
301 303 305 307 309 305 307 308 312 308 308 311 312 313 313 311 309 310 309 310 309 310 310 310 310 310 309 308 309 307 307 309 311 312 312 310 312 316 316 316 320 318 315 314
302 301 303 305 309 306 306 307 306 311 313 311 312 311 311 310 310 308 308 309 309 309 309 309 308 308 308 307 307 307 309 310 310 309 308 308 308 308 313 316 316 315 313 312
302 301 301 303 304 307 306 307 306 307 309 311 312 312 312 312 311 308 309 309 308 309 309 309 308 307 308 308 307 307 306 308 308 308 306 306 307 307 308 311 315 316 316 315
302 300 300 301 302 306 306 306 306 307 307 309 310 312 312 312 309 308 307 308 308 308 308 309 308 307 308 308 308 309 307 307 308 309 308 308 309 306 307 308 308 309 309 310
300 299 299 300 300 301 307 305 306 308 307 306 309 309 310 310 309 308 307 306 307 306 305 305 306 306 307 307 308 308 308 308 308 312 312 315 308 303 306 308 307 306 305 307
299 299 299 300 300 299 303 307 305 307 309 305 306 308 309 309 308 307 307 307 306 305 305 308 309 309 308 308 307 308 307 308 311 312 310 310 308 304 307 307 308 306 306 307
299 299 299 299 299 300 300 302 305 306 309 310 305 308 309 311 311 309 307 304 303 304 307 308 309 309 309 308 307 305 306 307 309 310 310 310 309 305 304 305 309 306 306 307
297 298 298 299 299 300 300 301 302 305 308 308 307 308 309 308 309 310 308 305 304 304 308 309 309 309 308 310 308 309 309 308 309 311 311 309 306 305 305 309 309 306 306 307
298 297 298 299 299 300 300 300 301 303 307 307 306 306 308 308 308 310 308 307 306 305 308 308 310 309 309 308 308 308 310 310 311 309 310 314 305 305 308 306 305 306 306 307
296 298 298 298 298 299 300 300 300 302 305 305 305 306 304 304 304 308 307 308 307 308 308 307 308 309 307 308 311 304 308 308 310 309 310 306 305 305 304 304 306 305 307 306
297 298 298 301 303 302 300 299 300 302 303 304 304 305 302 300 301 302 309 307 307 305 305 307 308 310 308 309 308 307 305 304 308 308 306 306 305 305 304 304 304 304 304 305
297 297 299 303 302 305 303 300 301 302 303 305 307 302 301 299 299 300 302 304 302 304 306 309 309 309 305 307 306 306 306 304 307 307 306 305 304 304 303 303 302 303 302 303
296 296 302 301 305 308 305 301 302 302 304 306 305 300 298 298 299 301 302 303 305 306 307 309 309 306 305 305 305 307 304 307 307 309 304 305 305 303 302 304 304 303 303 303
296 298 302 302 306 307 302 302 301 302 303 302 304 300 300 299 300 301 303 304 304 306 308 308 305 303 307 309 309 306 304 303 302 304 303 303 303 302 302 303 302 302 302 303
295 301 301 301 302 302 301 303 302 303 303 304 302 302 298 300 300 300 301 301 303 306 306 306 306 305 306 308 308 304 303 302 302 301 301 304 303 303 301 301 301 300 299 300
295 302 302 301 301 301 303 303 303 303 303 305 304 302 299 297 302 304 300 303 303 303 304 303 306 303 305 309 305 301 299 300 301 300 298 299 299 300 301 300 300 300 301 299
296 305 303 302 302 302 302 303 303 302 304 302 302 304 306 297 301 301 300 304 306 300 306 306 305 306 309 306 302 299 297 297 298 297 297 299 299 299 299 299 299 300 299 299
297 301 298 299 301 302 303 303 303 302 304 303 304 300 303 301 300 304 303 303 304 308 304 301 305 307 300 297 296 296 295 295 294 297 300 298 299 298 298 298 298 298 298 297
293 294 297 296 300 298 298 300 301 300 302 303 301 302 302 297 305 304 302 306 304 309 305 306 306 307 301 296 295 293 293 293 293 294 294 295 295 296 296 297 297 296 296 295
290 292 293 295 295 297 302 304 302 304 306 302 303 301 300 298 300 302 302 305 304 309 301 306 308 301 295 294 293 292 292 292 293 292 293 293 293 292 294 294 293 294 293 291
292 293 295 298 297 301 304 304 304 304 302 300 302 302 300 300 302 302 303 305 306 302 305 307 303 296 294 293 292 292 291 291 291 290 291 292 291 290 290 291 290 291 291 290
293 295 296 296 296 296 295 298 298 296 300 301 301 301 302 301 303 303 306 301 302 306 306 304 299 295 293 292 291 292 291 291 291 288 287 288 289 289 289 289 289 289 289 288
294 294 295 294 293 293 293 295 295 293 297 300 300 301 302 303 303 302 300 301 304 304 303 299 296 293 292 292 291 291 291 290 290 289 288 287 287 288 288 287 287 288 287 287
292 291 294 293 293 293 292 293 294 292 295 297 300 302 303 301 302 302 303 303 303 300 298 296 293 292 292 291 291 290 290 290 290 288 288 287 287 287 286 286 286 286 287 287
290 291 290 291 290 290 290 290 291 292 296 297 298 300 298 298 301 299 297 299 297 296 295 294 293 292 291 290 290 289 288 289 288 287 286 286 284 284 285 287 286 285 285 285

GFSNW_925_thetae_186.txt.gz
Theta_e
302 303 305 308 311 307 306 309 312 308 308 312 312 314 314 308 310 309 310 310 311 311 310 311 311 310 311 309 310 310 310 311 311 311 313 313 314 316 316 322 322 316 318 313
301 301 303 305 309 308 308 308 310 308 308 315 314 314 313 312 311 311 311 311 311 311 311 310 310 310 309 309 309 309 309 309 310 314 314 312 314 314 315 316 318 316 317 313
301 301 301 304 306 309 307 307 308 309 309 309 311 313 313 313 310 310 310 310 310 310 310 309 310 310 310 308 309 307 307 307 308 311 310 309 309 312 314 316 319 318 317 314
302 302 300 302 304 308 306 307 306 309 311 309 309 311 312 313 312 309 309 309 309 309 309 309 308 308 308 308 308 306 307 309 308 307 308 307 307 307 307 314 315 316 315 314
302 302 301 300 301 303 307 308 307 305 307 307 307 312 313 313 312 311 309 309 309 308 308 308 308 308 307 307 306 306 307 307 306 306 306 305 305 306 307 307 311 313 314 314
300 301 301 300 300 300 306 306 306 306 307 306 306 307 310 312 311 310 309 308 308 308 308 307 306 306 306 305 308 307 307 306 306 309 308 308 308 306 305 306 308 307 309 308
299 300 300 300 299 299 300 302 306 308 309 309 309 306 307 309 310 311 308 306 306 306 305 305 305 304 305 305 305 306 307 307 307 308 309 311 307 303 305 306 307 305 305 306
300 299 299 299 299 299 300 300 302 307 308 308 309 308 305 304 306 308 307 307 305 305 305 307 308 308 308 307 306 305 305 306 307 309 309 308 306 304 305 305 307 305 305 305
300 300 299 300 300 299 300 301 301 302 305 307 308 309 308 305 305 308 308 304 303 304 306 307 307 308 309 308 307 305 306 305 307 307 310 309 308 304 303 304 307 305 305 304
298 298 298 298 298 298 299 300 300 301 302 303 305 309 309 308 305 308 307 304 303 303 306 307 307 307 307 308 307 306 306 306 307 308 310 309 305 304 304 309 308 305 305 304
297 297 297 298 297 297 298 299 300 301 300 300 303 305 307 307 307 308 306 305 305 303 307 307 307 307 306 307 307 308 308 308 308 307 308 310 304 305 307 304 304 305 305 304
296 296 296 297 297 297 299 300 299 300 300 300 300 301 302 306 307 306 305 307 305 305 306 306 306 307 305 306 308 304 306 306 309 307 309 305 304 304 303 303 304 304 306 305
295 295 296 297 297 298 299 300 300 300 300 299 300 300 301 303 304 304 305 306 306 305 303 305 306 308 306 306 305 306 304 303 305 306 305 305 305 303 303 303 303 303 302 305
294 295 296 297 297 298 298 299 300 300 300 300 299 300 300 300 304 302 302 304 303 303 303 306 306 306 304 306 305 305 305 303 306 306 304 303 302 302 302 302 302 302 301 302
293 294 295 297 296 298 298 300 302 301 300 301 300 302 303 301 301 300 301 302 303 304 305 305 307 305 303 303 303 305 302 304 305 307 302 303 302 301 302 302 302 301 302 302
293 294 296 296 297 300 303 303 303 303 300 301 303 299 300 300 299 300 301 302 303 304 306 306 304 302 305 305 306 305 302 301 301 301 302 302 301 301 300 301 301 300 300 300
293 294 296 296 298 302 303 303 302 303 300 301 300 300 298 299 299 300 301 301 303 304 305 304 304 304 305 305 306 303 301 301 300 299 301 302 301 301 299 300 300 299 299 299
293 294 295 296 300 298 300 300 301 301 301 301 299 300 299 298 301 301 300 302 302 303 302 301 304 302 303 306 303 299 299 299 300 298 297 298 298 299 299 299 299 300 299 298
293 293 296 301 301 300 302 301 302 301 302 302 301 301 302 295 300 299 299 304 305 300 304 305 304 305 304 304 301 298 297 299 298 296 297 298 298 298 298 298 298 299 298 297
292 294 299 299 301 302 302 301 302 301 302 301 303 301 299 298 299 300 301 299 303 305 304 300 304 305 298 296 295 294 294 294 295 295 297 297 297 297 297 297 296 297 296 295
291 293 295 295 299 300 299 300 301 300 300 301 302 302 299 296 303 303 302 304 303 308 303 306 306 304 299 295 293 292 292 292 293 294 294 294 295 295 295 296 296 295 295 293
291 290 291 294 296 297 300 301 301 302 305 300 301 301 301 297 297 302 301 304 303 308 300 305 307 298 294 293 292 291 291 292 292 292 292 292 291 291 292 292 291 292 292 291
291 291 295 297 296 299 302 305 304 304 301 299 299 300 298 296 297 301 303 306 305 300 305 306 299 294 293 292 291 290 290 290 290 290 291 290 289 290 291 290 290 291 290 290
293 295 294 295 295 295 295 296 298 296 298 299 299 300 301 299 302 302 303 301 302 306 306 304 296 292 291 291 291 289 289 289 287 285 286 288 288 288 288 288 289 289 288 289
293 294 294 293 293 293 293 294 294 293 296 297 300 301 302 302 302 299 300 302 304 302 300 298 293 290 290 289 289 289 288 288 287 287 285 285 287 287 286 287 288 288 288 288
292 291 293 293 292 291 291 292 293 292 295 297 299 302 299 300 301 300 299 298 301 299 296 292 290 290 289 289 288 288 288 288 287 287 287 285 285 285 286 286 286 286 287 286
289 290 289 290 291 291 290 290 291 292 295 296 297 296 297 295 294 293 294 298 296 294 292 290 289 289 289 288 287 287 287 287 286 286 285 284 284 286 287 285 285 285 285 285